• In Belgien
  • Länderverzeichnis
  • Für 7 Tage
  • Wassertemperatur
  • Satellitenkarten
  • Wetterkarte
  • Widgets
  • user-avatar
    Anmelden

    Stündliche Wetter Steniatyn

    Heute, 20 April, Freitag

    Zeit Temperatur Niederschläge Wind Luftdruck Luftfeuchtigkeit
    00:00 +9°C° 0 mm 5 m/S 748 mmHg 70%
    01:00 +8°C° 0 mm 4 m/S 748 mmHg 73%
    02:00 +8°C° 0 mm 3 m/S 748 mmHg 84%
    03:00 +8°C° 0 mm 3 m/S 748 mmHg 85%
    04:00 +7°C° 0 mm 3 m/S 748 mmHg 87%
    05:00 +7°C° 0 mm 3 m/S 748 mmHg 89%
    06:00 +8°C° 0 mm 3 m/S 748 mmHg 84%
    07:00 +9°C° 0 mm 3 m/S 749 mmHg 79%
    08:00 +10°C° 0 mm 3 m/S 749 mmHg 74%
    09:00 +11°C° 0 mm 3 m/S 749 mmHg 67%
    10:00 +12°C° 0 mm 3 m/S 749 mmHg 61%
    11:00 +14°C° 0 mm 4 m/S 749 mmHg 54%
    12:00 +15°C° 0 mm 4 m/S 749 mmHg 51%
    13:00 +17°C° 0 mm 4 m/S 749 mmHg 47%
    14:00 +18°C° 0 mm 3 m/S 749 mmHg 43%
    15:00 +18°C° 0 mm 3 m/S 748 mmHg 44%
    16:00 +18°C° 0 mm 3 m/S 748 mmHg 44%
    17:00 +18°C° 0 mm 3 m/S 748 mmHg 45%
    18:00 +16°C° 0 mm 2 m/S 747 mmHg 50%
    19:00 +14°C° 0 mm 2 m/S 747 mmHg 56%
    20:00 +13°C° 0 mm 1 m/S 747 mmHg 61%
    21:00 +12°C° 0 mm 1 m/S 747 mmHg 62%
    22:00 +12°C° 0 mm 1 m/S 746 mmHg 63%
    23:00 +11°C° 0 mm 1 m/S 746 mmHg 65%

    Morgen, 21 April, Samstag

    Zeit Temperatur Niederschläge Wind Luftdruck Luftfeuchtigkeit
    00:00 +10°C° 0 mm 2 m/S 746 mmHg 66%
    01:00 +9°C° 0 mm 2 m/S 746 mmHg 68%
    02:00 +9°C° 0 mm 3 m/S 746 mmHg 70%
    03:00 +9°C° 0 mm 3 m/S 745 mmHg 71%
    04:00 +9°C° 0 mm 3 m/S 744 mmHg 71%
    05:00 +8°C° 0 mm 3 m/S 744 mmHg 72%
    06:00 +10°C° 0 mm 4 m/S 743 mmHg 67%
    07:00 +12°C° 0 mm 5 m/S 743 mmHg 62%
    08:00 +13°C° 0 mm 5 m/S 743 mmHg 56%
    09:00 +15°C° 0 mm 6 m/S 742 mmHg 52%
    10:00 +19°C° 0 mm 6 m/S 742 mmHg 48%
    11:00 +21°C° 0 mm 7 m/S 741 mmHg 45%
    12:00 +22°C° 0 mm 7 m/S 741 mmHg 45%
    13:00 +23°C° 0 mm 8 m/S 741 mmHg 45%
    14:00 +24°C° 0 mm 8 m/S 741 mmHg 45%
    15:00 +24°C° 0 mm 7 m/S 740 mmHg 48%
    16:00 +23°C° 0 mm 6 m/S 740 mmHg 50%
    17:00 +22°C° 0 mm 5 m/S 740 mmHg 53%
    18:00 +20°C° 0,1 mm 5 m/S 740 mmHg 57%
    19:00 +18°C° 0,1 mm 4 m/S 740 mmHg 61%
    20:00 +17°C° 0,1 mm 4 m/S 740 mmHg 65%
    21:00 +14°C° 0 mm 4 m/S 741 mmHg 67%
    22:00 +13°C° 0 mm 3 m/S 741 mmHg 69%
    23:00 +12°C° 0 mm 3 m/S 741 mmHg 71%

    übermorgen, 22 April, Sonntag

    Zeit Temperatur Niederschläge Wind Luftdruck Luftfeuchtigkeit
    00:00 +11°C° 0 mm 3 m/S 741 mmHg 71%
    01:00 +10°C° 0 mm 2 m/S 742 mmHg 71%
    02:00 +9°C° 0 mm 2 m/S 742 mmHg 71%
    03:00 +8°C° 0 mm 2 m/S 742 mmHg 72%
    04:00 +8°C° 0 mm 2 m/S 742 mmHg 73%
    05:00 +7°C° 0 mm 2 m/S 742 mmHg 73%
    06:00 +8°C° 0 mm 2 m/S 742 mmHg 70%
    07:00 +9°C° 0 mm 3 m/S 742 mmHg 66%
    08:00 +11°C° 0 mm 3 m/S 743 mmHg 62%
    09:00 +12°C° 0 mm 3 m/S 743 mmHg 57%
    10:00 +14°C° 0 mm 3 m/S 743 mmHg 52%
    11:00 +15°C° 0 mm 4 m/S 742 mmHg 47%
    12:00 +17°C° 0 mm 4 m/S 742 mmHg 45%
    13:00 +17°C° 0 mm 4 m/S 742 mmHg 43%
    14:00 +18°C° 0 mm 4 m/S 742 mmHg 42%
    15:00 +18°C° 0 mm 4 m/S 741 mmHg 42%
    16:00 +18°C° 0 mm 4 m/S 741 mmHg 43%
    17:00 +18°C° 0 mm 4 m/S 741 mmHg 44%
    18:00 +16°C° 0 mm 3 m/S 741 mmHg 50%
    19:00 +13°C° 0 mm 3 m/S 741 mmHg 56%
    20:00 +13°C° 0 mm 2 m/S 741 mmHg 61%
    21:00 +12°C° 0 mm 2 m/S 741 mmHg 62%
    22:00 +10°C° 0 mm 2 m/S 741 mmHg 64%
    23:00 +11°C° 0 mm 1 m/S 741 mmHg 65%

    23 April, Montag

    Zeit Temperatur Niederschläge Wind Luftdruck Luftfeuchtigkeit
    00:00 +10°C° 0 mm 1 m/S 741 mmHg 66%
    01:00 +10°C° 0 mm 1 m/S 741 mmHg 67%
    02:00 +9°C° 0 mm 1 m/S 741 mmHg 67%
    03:00 +9°C° 0 mm 1 m/S 741 mmHg 69%
    04:00 +9°C° 0 mm 1 m/S 741 mmHg 70%
    05:00 +8°C° 0 mm 1 m/S 741 mmHg 71%
    06:00 +10°C° 0 mm 1 m/S 741 mmHg 67%
    07:00 +11°C° 0 mm 1 m/S 741 mmHg 63%
    08:00 +13°C° 0 mm 1 m/S 741 mmHg 59%
    09:00 +15°C° 0 mm 1 m/S 741 mmHg 54%
    10:00 +18°C° 0 mm 1 m/S 741 mmHg 49%
    11:00 +19°C° 0 mm 1 m/S 741 mmHg 43%
    12:00 +20°C° 0 mm 1 m/S 740 mmHg 41%
    13:00 +21°C° 0 mm 1 m/S 740 mmHg 39%
    14:00 +20°C° 0 mm 2 m/S 739 mmHg 37%
    15:00 +21°C° 0 mm 2 m/S 739 mmHg 39%
    16:00 +21°C° 0 mm 2 m/S 738 mmHg 40%
    17:00 +21°C° 0 mm 2 m/S 738 mmHg 42%
    18:00 +20°C° 0,5 mm 3 m/S 737 mmHg 50%
    19:00 +18°C° 0,5 mm 3 m/S 737 mmHg 58%
    20:00 +15°C° 0,5 mm 4 m/S 736 mmHg 65%
    21:00 +15°C° 2,6 mm 4 m/S 737 mmHg 74%
    22:00 +14°C° 2,6 mm 4 m/S 737 mmHg 82%
    23:00 +14°C° 2,6 mm 4 m/S 737 mmHg 90%

    24 April, Dienstag

    Zeit Temperatur Niederschläge Wind Luftdruck Luftfeuchtigkeit
    00:00 +13°C° 0 mm 4 m/S 737 mmHg 92%
    01:00 +13°C° 0 mm 4 m/S 737 mmHg 93%
    02:00 +12°C° 0 mm 4 m/S 737 mmHg 95%
    03:00 +12°C° 0 mm 4 m/S 737 mmHg 94%
    04:00 +12°C° 0 mm 4 m/S 738 mmHg 94%
    05:00 +12°C° 0 mm 4 m/S 738 mmHg 93%
    06:00 +12°C° 0,1 mm 4 m/S 739 mmHg 88%
    07:00 +12°C° 0,1 mm 5 m/S 739 mmHg 83%
    08:00 +12°C° 0,1 mm 5 m/S 740 mmHg 77%
    09:00 +13°C° 0 mm 5 m/S 740 mmHg 70%
    10:00 +14°C° 0 mm 5 m/S 740 mmHg 63%
    11:00 +15°C° 0 mm 6 m/S 741 mmHg 56%
    12:00 +16°C° 0 mm 6 m/S 741 mmHg 55%
    13:00 +16°C° 0 mm 6 m/S 740 mmHg 54%
    14:00 +17°C° 0 mm 6 m/S 740 mmHg 53%
    15:00 +16°C° 0 mm 5 m/S 740 mmHg 55%
    16:00 +16°C° 0 mm 5 m/S 740 mmHg 56%
    17:00 +16°C° 0 mm 5 m/S 740 mmHg 58%
    18:00 +15°C° 0 mm 4 m/S 740 mmHg 63%
    19:00 +14°C° 0 mm 3 m/S 740 mmHg 67%
    20:00 +14°C° 0 mm 2 m/S 740 mmHg 72%
    21:00 +14°C° 0,1 mm 2 m/S 740 mmHg 75%
    22:00 +13°C° 0,1 mm 2 m/S 740 mmHg 78%
    23:00 +13°C° 0,1 mm 2 m/S 740 mmHg 80%

    25 April, Mittwoch

    Zeit Temperatur Niederschläge Wind Luftdruck Luftfeuchtigkeit
    00:00 +13°C° 0,1 mm 2 m/S 740 mmHg 81%
    01:00 +13°C° 0,1 mm 2 m/S 740 mmHg 82%
    02:00 +12°C° 0,1 mm 3 m/S 740 mmHg 83%
    03:00 +11°C° 0 mm 3 m/S 740 mmHg 84%
    04:00 +11°C° 0 mm 3 m/S 740 mmHg 85%
    05:00 +11°C° 0 mm 3 m/S 740 mmHg 86%
    06:00 +12°C° 0 mm 3 m/S 740 mmHg 82%
    07:00 +13°C° 0 mm 4 m/S 740 mmHg 78%
    08:00 +14°C° 0 mm 4 m/S 740 mmHg 74%
    09:00 +16°C° 0 mm 5 m/S 740 mmHg 67%
    10:00 +19°C° 0 mm 6 m/S 739 mmHg 60%
    11:00 +21°C° 0 mm 7 m/S 739 mmHg 53%
    12:00 +22°C° 0 mm 7 m/S 739 mmHg 51%
    13:00 +23°C° 0 mm 7 m/S 738 mmHg 49%
    14:00 +23°C° 0 mm 8 m/S 738 mmHg 47%
    15:00 +23°C° 0 mm 7 m/S 738 mmHg 49%
    16:00 +23°C° 0 mm 6 m/S 737 mmHg 51%
    17:00 +23°C° 0 mm 5 m/S 737 mmHg 53%
    18:00 +21°C° 0,2 mm 4 m/S 736 mmHg 59%
    19:00 +20°C° 0,2 mm 4 m/S 736 mmHg 65%
    20:00 +18°C° 0,2 mm 3 m/S 736 mmHg 71%
    21:00 +17°C° 0,7 mm 3 m/S 736 mmHg 77%
    22:00 +16°C° 0,7 mm 3 m/S 736 mmHg 83%
    23:00 +15°C° 0,7 mm 2 m/S 736 mmHg 89%
    Mehr zeigen